Weather in Maltsevo

Russia / Kemerovo Oblast     55°57′25″N   84°49′53″E
temp.,
°C
wind,
m/s
gust,
m/s
humid.,
%
clouds,
%
prec.,
mm/h
press.,
hPa
HPBL,
m
13 april, tue
tue1301:00+1w41098100 2.6 1025426
04:00+1wnw3799100 0.8 1025267
07:000nw489998 0.8 1027280
10:00+1nnw468754 0.0 1029590
13:00+4nw567219 0.0 1029990
16:00+6wnw586473 0.1 10291589
19:00+4wnw487499 0.3 1029196
22:00+2w61285100 0.1 1030423
14 april, wed
wed1401:00+2w499391 0.3 1030331
04:000w5109492 0.0 1029298
07:00+1wsw5119585 0.0 1029369
10:00+2sw61397100 0.3 1027558
13:00+2wsw71597100 2.8 1025678
16:00+6wsw71381100 0.1 10221121
19:00+5w71384100 1.1 1021768
22:00+4w4892100 0.1 1023278
15 april, thu
thu1501:00+4wnw3795100 0.2 1024209
04:00+3w2497100 0.0 102494
07:00+3w2297100 0.0 102540
10:00+5ssw2493100 0.0 1025256
13:00+6sw3588100 0.0 1024465
16:00+6ssw4690100 0.1 1022502
19:00+6sw4892100 0.1 1020359
22:00+5ssw4997100 0.1 1020264
16 april, fri
fri1601:00+5sw5129532 0.1 1018324
04:00+4sw61298100 0.0 1016350
07:00+6sw61194100 0.0 1015459
10:00+9sw611846 0.0 1014481
13:00+14sw8116647 0.0 10121103
16:00+16wsw7116021 0.0 10101540
19:00+13wnw6107698 1.5 1010738
22:00+5nne5789100 1.6 1013491
17 april, sat
sat1701:00+2ne5997100 7.6 1013444
04:000nne6997100 3.7 1013550
07:00−3ne71393100 5.1 1013562
10:00−3ne61195100 2.1 1013690
13:00−2ne71194100 4.3 1012789
16:00−1ne71088100 0.5 1011962
19:00−2ne71295100 1.6 1012819
22:00−4ne71394100 0.6 1013789